• Join FlightAware (Why Join?)
  • Login
  • US Flag GB Flag 
08:36 EST


 

Airport Tracker/Info


-or-


 

Live Flight TrackerFlight Track Log ✈ AWI3704 ✈ 25-May-2013 ✈ KPHL - KALB

Flight Track Log - Related Links

Times and Time Zones

All times are in EDT time to prevent confusion due to time zone crossing. See the AWI3704 flight status page for this flight to view local times or setup timezone preferences in your user account.

Time Position Orientation Groundspeed Altitude Reporting Facility
EDT Latitude Longitude Course Direction KTS MPH feet Rate Location/Type
09:55 39.8667 -75.2667 37° Northeast 164 189 600  Level Philadelphia TRACON
09:56 39.8000 -75.3167 210° Southwest 221 254 3,900 2,727 Climbing Philadelphia TRACON
09:57 39.7500 -75.3667 218° Southwest 261 300 6,600 2,187 Climbing Philadelphia TRACON
09:58 39.8167 -74.8977 90° East  Level FlightAware Approximate
09:59 39.7999 -74.7829 105° East  Level FlightAware Approximate
10:00 39.8028 -74.6805 37° Northeast  Level FlightAware Approximate
10:00 39.7233 -75.1569 99° East 269 310 11,300  Level New York Center
10:01 39.8745 -74.6089 37° Northeast  Level FlightAware Approximate
10:01 39.7422 -75.0472 77° East 322 371 12,100  Level New York Center
10:02 39.7617 -74.9081 80° East 354 407 12,100 508 Level New York Center
10:03 39.7850 -74.7744 77° East 360 414 13,100 1,537 Climbing New York Center
10:04 39.8406 -74.6747 54° Northeast 345 397 15,200 2,017 Climbing New York Center
10:05 39.9181 -74.5953 38° Northeast 334 384 17,100 1,729 Climbing New York Center
10:06 39.9978 -74.5183 36° Northeast 339 390 18,600 1,328 Climbing New York Center
10:07 40.0794 -74.4358 38° Northeast 356 410 19,800 1,279 Climbing New York Center
10:08 40.1678 -74.3508 36° Northeast 375 432 21,200 1,322 Climbing New York Center
10:09 40.2536 -74.2628 38° Northeast 381 438 22,400 1,091 Climbing New York Center
10:10 40.3722 -74.1397 38° Northeast 397 457 24,000 615 Climbing Boston Center
10:11 40.4758 -74.0389 37° Northeast 397 457 24,000  Level Boston Center
10:12 40.5725 -73.9919 20° North 378 435 24,000  Level Boston Center
10:13 40.6669 -73.9367 24° Northeast 367 422 24,000  Level Boston Center
10:14 40.7614 -73.8869 22° Northeast 361 415 24,000  Level Boston Center
10:15 40.8436 -73.8036 37° Northeast 356 410 24,000  Level Boston Center
10:16 40.9219 -73.7092 42° Northeast 361 415 24,000 -500 Level Boston Center
10:17 41.0222 -73.6753 14° North 367 422 23,000 -500 Descending Boston Center
10:18 41.1267 -73.6608 North 359 413 23,000 -350 Level Boston Center
10:19 41.2311 -73.6489 North 364 419 22,300 -850 Descending Boston Center
10:20 41.3311 -73.6314 North 371 427 21,300 -1,050 Descending Boston Center
10:21 41.4336 -73.6169 North 371 427 20,200 -1,200 Descending Boston Center
10:22 41.5269 -73.6408 349° North 353 406 18,900 -1,400 Descending Boston Center
10:23 41.6225 -73.6758 345° North 347 399 17,400 -1,955 Descending Boston Center
10:25 41.7222 -73.7083 346° North 341 392 14,600 -2,045 Descending Boston Center
10:26 41.8200 -73.7300 351° North 328 377 12,900 -1,725 Descending Boston Center
10:26 41.8469 -73.7306 359° North 319 367 12,300 -1,400 Descending Boston Center
10:27 41.8969 -73.7314 359° North 317 365 11,500 -1,309 Descending Boston Center
10:27 41.9283 -73.7375 352° North 313 360 11,100 -500 Descending Boston Center
10:28 41.9908 -73.7389 359° North 307 353 11,000 -100 Descending Boston Center
10:28 42.0094 -73.7422 352° North 295 339 11,000  Level Boston Center
10:29 42.0594 -73.7458 357° North 290 334 11,000 -492 Level Boston Center
10:29 42.0864 -73.7522 350° North 276 318 10,500 -1,600 Descending Boston Center
10:30 42.1447 -73.7533 359° North 285 328 9,400 -1,433 Descending Boston Center
10:30 42.1697 -73.7594 350° North 272 313 8,900 -1,446 Descending Boston Center
10:31 42.2425 -73.7667 356° North 248 285 7,400 -1,488 Descending Boston Center
10:32 42.3069 -73.7764 354° North 228 262 5,900 -1,276 Descending Boston Center
10:33 42.3717 -73.7778 359° North 215 247 4,700 -1,039 Descending Boston Center
10:34 42.4258 -73.7872 353° North 192 221 3,700 -934 Descending Boston Center
10:35 42.4758 -73.7911 357° North 182 209 2,800 -567 Descending Boston Center
10:36 42.5297 -73.7981 355° North 161 185 2,500 -142 Descending Boston Center
10:37 42.5714 -73.8017 356° North 147 169 2,500  Level Boston Center
10:38 42.6111 -73.8028 359° North 137 158 2,500  Level Boston Center